FLOCK 4A-16 (44099 NORAD) Tracking and Keplerian Element Data

This shows tracking and keplerian element data for the satellite.

Feedback or suggestion? Click here.




ElementValue
Catalog44099
NameFLOCK 4A-16
Epoch Orbit309
Epoch Day111.71824923
Epoch Year2019
RAAN172.1175
Inclination97.4622
Eccentricity0.001089
Argument of Perigee217.4468
Mean Anonmoly142.601
Mean Motion15.22095536
Decay Rate8.69E-06
L11 44099U 19018X 19111.71824923 .00000869 00000-0 40995-4 0 9998
L22 44099 97.4622 172.1175 0010890 217.4468 142.6010 15.22095536 3096

Live tracking and technical data element details for FLOCK 4A-16 (NORAD 44099). FLOCK 4A-16 can be tracked NOW for your location showing map with azimuth and elevation plus other details from your city location.

Track the satellite on the map from your city or location and see movement details for azimuth, elevation, latitude, longitude, range, height, and movement on the map or in text.







IsCatalogInMostPopularTable: catalog: 44099, numindb: 4
Update: records affected: 1



GetName: 44099 FLOCK 4A-16

Hit Count: updated at: Tue, 23 Apr 2019 02:06:06 GMT